Find Starlink 32772

NORAD ID: 63033 Int'l Des: 2025-034 Owner: SPXS Country: US Constellation: starlink operational
LEOCIRCULAR

Live Position

Loading 3D Globe...

About Starlink 32772

Description loading...

Upcoming Passes

Passes for default location (London). Set your location on the main map for personalized predictions.

Altitude History

Loading altitude history...

Two-Line Element Set

1 63033U 25034E 26106.22253655 .00010228 00000-0 35683-3 0 9995
2 63033 53.1579 83.7599 0000866 76.4141 283.6956 15.30214057 64839
Epoch: Apr 16, 2026 • Age: 9 hours

Current Status

Altitude 475.8 km
Velocity 7.63 km/s
Sub-Earth Point 0.75°N, 16.49°E
Launch Date Feb 18, 2025
Age 1.1 years
Type internet

Technical Details

Classification Payload
Mass 730.00 kg
Dry Mass 700.00 kg
Total Mass 730.00 kg
Length 0.30 m
Diameter 4.10 m
Span 29.00 m
Shape Box + pan
Manufacturer SPXS
Bus Type Starlink V2M
Phase Status In Orbit
Owner/State SPXS/US

Most Searched